Location: Bergnershof
(48.9468°N, 10.9431°E)
Time: 11:52:50
(UTC+00:00)

Lacrosse 4 Rocket - Pass Details

Date: 03 March 2021
Orbit: 537 x 620 km, 68.0° (Epoch: 13 April)

Event Time Altitude Azimuth Distance (km) Brightness Sun altitude
Rises 19:10:49 0° 197° (SSW) 2,821 5.0 -21.6°
Reaches altitude 10° 19:13:04 10° 192° (SSW) 1,936 4.1 -22.0°
Enters shadow 19:14:32 20° 185° (S) 1,389 3.2 -22.2°
